Location: Newark
(46.9000°N, 28.3500°E)
Time: 00:36:29
(UTC+00:00)

Explorer 7 - Pass Details

Date: 31 August 2019
Orbit: 485 x 680 km, 50.3° (Epoch: 18 October)

Event Time Altitude Azimuth Distance (km) Brightness Sun altitude
Rises 05:12:49 0° 243° (WSW) 3,027 10.1 17.6°
Reaches altitude 10° 05:15:11 10° 242° (WSW) 2,114 9.4 18.0°
Maximum altitude 05:20:06 82° 156° (SSE) 683 7.7 18.8°
Drops below altitude 10° 05:24:55 10° 69° (ENE) 2,069 11.0 19.6°
Sets 05:27:13 0° 69° (ENE) 2,958 11.6 20.0°
